CIEL-2

导读 | 星芒AI

CIEL-2 是一颗由日本宇宙航空研究开发机构(JAXA)与东京大学合作研发的小型卫星,主要用于大气和电离层的观测。该卫星搭载多种科学仪器,旨在研究地球电离层的不规则结构及其对通信和导航系统的影响。CIEL-2 于 2022 年发射,作为 CIEL-1 的后续任务,进一步推动对近地空间环境的理解,为改善空间天气预测和通信技术提供数据支持。

基本信息
目录编号:
33453
目录名称:
CIEL-2
国际标识:
2008-063A
轨道中心:
EARTH
卫星名称:
CIEL-2
卫星全名:
--
卫星状态:
在轨 (已飞行6167 天)
发射日期:
2008-12-10 UTC
国别 :
加拿大 (CA)
星等 :
--
轨道信息
数据来源 国际轨道数据 AOE轨道数据
星历时间 2025-10-28T22:10:29+0800
17小时前
查看轨道信息
2025-10-28T17:00:00+0800
22小时前
查看轨道信息
半长轴 42518.858km 42518.858km
偏心率 0.0003332 0.0003344
轨道倾角 2.181° 2.180°
近地点辐角 287.015° 287.498°
升交点赤经 83.848° 83.847°
平近点角 116.735° 39.389°
近地点 36126.555km 36126.504km
远地点 36154.891km 36154.942km
周期 1454.227分钟 1454.227分钟
每日圈数 0.990217 0.990217
详细信息
使用方式:
暂无
2D轨道图
3D轨道图
轨道高度分析图
轨道倾角分析图
轨道综合分析图
查看轨道综合分析图